Tracking 23726 objects as of 16-Oct-2021
HD Live streaming from Space Station
objects crossing your sky now

SL-12 R/B(2)

Track SL-12 R/B(2) now!


NORAD ID: 16797
Int'l Code: 1986-044F
Perigee: 36,491.9 km
Apogee: 36,587.7 km
Inclination: 13.9 °
Period: 1,474.4 minutes
Semi major axis: 42910 km
RCS: 2.4859 m2 (large)
Launch date: June 10, 1986
Source: Commonwealth of Independent States (former USSR) (CIS)
Launch site: TYURATAM MISSILE AND SPACE COMPLEX (TTMTR)

Note: This is a ROCKET BODY
aabbcc
Your satellite tracking list
Your tracking list is empty




NASA's NSSDC Master Catalog

Two Line Element Set (TLE):
1 16797U 86044F   21288.63105061 -.00000073  00000-0  00000+0 0  9995
2 16797  13.9025 337.4375 0011168 148.8408 217.7657  0.97668252126238
Source of the keplerian elements: AFSPC